Weather History for KTRM - February, 2014

Change the Weather History Date:

Saturday, February 15, 2014

  Actual Average Record
Temperature  
Mean Temperature 64 °F 58 °F  
Max Temperature 86 °F 75 °F 89 °F (1977)
Min Temperature 42 °F 41 °F 20 °F (1990)
Degree Days  
Heating Degree Days 1 7  
Month to date heating degree days 93 126  
Since 1 July heating degree days 766 986  
Cooling Degree Days 0 0  
Month to date cooling degree days 3 0  
Year to date cooling degree days 3 2  
Growing Degree Days 14 (Base 50)    
Moisture  
Dew Point 32 °F    
Average Humidity 38    
Maximum Humidity 65    
Minimum Humidity 11    
Precipitation  
Precipitation 0.00 in 0.02 in 1.15 in (1986)
Month to date precipitation 0.00 0.32  
Year to date precipitation T 0.99  
Since 1 July precipitation 1.47  
Snow  
Snow 0.00 in - - ()
Month to date snowfall 0.0  
Year to date snowfall 0.0  
Since 1 July snowfall 0.0  
Snow Depth 0.00 in    
Sea Level Pressure  
Sea Level Pressure 29.92 in    
Wind  
Wind Speed 4 mph (NE)    
Max Wind Speed 10 mph    
Max Gust Speed 15 mph    
Visibility 10 miles    
Events      
T = Trace of Precipitation, MM = Missing Value Source: NWS Daily Summary

Daily Weather History Graph

Daily Weather History Graph

Search for Another Location

Airport or City:

Trip Planner

Search our weather history database for the weather conditions in past years. The results will help you decide how hot, cold, wet, or windy it might be!

Date:

Astronomy

Feb. 15, 2014 Rise Set
Actual Time 6:28 AM PST 5:29 PM PST
Civil Twilight 6:03 AM PST 5:54 PM PST
Nautical Twilight 5:34 AM PST 6:23 PM PST
Astronomical Twilight 5:05 AM PST 6:52 PM PST
Moon 6:27 PM PST (2/15) 6:34 AM PST (2/15)
Length of Visible Light 11h 51m
Length of Day
11h 00m
Full, 99% of the Moon is Illuminated
Feb 15
Full
Feb 22
Last Quarter
Mar 1
New
Mar 8
First Quarter
Mar 16
Full

Hourly Weather History & Observations

Time (PST) Temp. Windchill Dew Point Humidity Pressure Visibility Wind Dir Wind Speed Gust Speed Precip Events Conditions
12:52 AM 51.1 °F - 33.1 °F 50% 29.93 in 10.0 mi Calm Calm - N/A   Clear
1:52 AM 48.0 °F - 34.0 °F 58% 29.92 in 10.0 mi NNW 4.6 mph - N/A   Clear
2:52 AM 48.9 °F - 30.0 °F 48% 29.91 in 10.0 mi WNW 3.5 mph - N/A   Clear
3:52 AM 45.0 °F 43.5 °F 33.1 °F 63% 29.91 in 10.0 mi NNW 3.5 mph - N/A   Clear
4:52 AM 46.0 °F 44.8 °F 30.0 °F 54% 29.91 in 10.0 mi North 3.5 mph - N/A   Clear
5:52 AM 44.1 °F - 30.0 °F 58% 29.92 in 10.0 mi Calm Calm - N/A   Clear
6:52 AM 44.1 °F 41.5 °F 30.0 °F 58% 29.94 in 10.0 mi NNW 4.6 mph - N/A   Clear
7:52 AM 55.9 °F - 33.1 °F 42% 29.97 in 10.0 mi Calm Calm - N/A   Clear
8:52 AM 68.0 °F - 27.0 °F 21% 29.99 in 10.0 mi East 3.5 mph - N/A   Clear
9:52 AM 73.9 °F - 37.9 °F 27% 29.99 in 10.0 mi Calm Calm - N/A   Clear
10:52 AM 79.0 °F - 32.0 °F 18% 29.97 in 10.0 mi South 6.9 mph - N/A   Clear
11:52 AM 84.0 °F - 34.0 °F 17% 29.94 in 10.0 mi SE 5.8 mph - N/A   Clear
12:52 PM 82.9 °F - 30.0 °F 15% 29.93 in 10.0 mi SE 6.9 mph - N/A   Clear
1:52 PM 84.9 °F - 24.1 °F 11% 29.90 in 10.0 mi SSE 5.8 mph - N/A   Clear
2:52 PM 84.0 °F - 24.1 °F 11% 29.89 in 10.0 mi Variable 4.6 mph - N/A   Clear
3:52 PM 84.0 °F - 27.0 °F 13% 29.87 in 10.0 mi SE 6.9 mph - N/A   Clear
4:52 PM 80.1 °F - 30.0 °F 16% 29.87 in 10.0 mi SSE 3.5 mph - N/A   Clear
5:52 PM 72.0 °F - 28.9 °F 20% 29.89 in 10.0 mi SE 3.5 mph - N/A   Clear
6:52 PM 66.0 °F - 33.1 °F 29% 29.90 in 10.0 mi Calm Calm - N/A   Clear
7:52 PM 61.0 °F - 35.1 °F 38% 29.90 in 10.0 mi Calm Calm - N/A   Clear
8:52 PM 61.0 °F - 36.0 °F 39% 29.91 in 10.0 mi Calm Calm - N/A   Clear
9:52 PM 61.0 °F - 36.0 °F 39% 29.92 in 10.0 mi NNW 5.8 mph - N/A   Clear
10:52 PM 57.9 °F - 37.0 °F 46% 29.92 in 10.0 mi North 3.5 mph - N/A   Clear
11:52 PM 52.0 °F - 36.0 °F 54% 29.91 in 10.0 mi NW 3.5 mph - N/A   Clear